Location: Breezy Point Observatory
(38.9725°N, 81.7133°W)
Time: 04:40:03
(UTC-05:00)

Hubble Space Telescope - Visible Passes

Search period start: 11 December 2017 00:00
Search period end: 21 December 2017 00:00
Orbit: 538 x 541 km, 28.5° (Epoch: 10 December)

Date Brightness Start Highest point End Pass type
(mag) Time Alt. Az. Time Alt. Az. Time Alt. Az.
11 Dec 3.2 17:35:25 10° SSW 17:37:44 15° SSE 17:40:03 10° SE visible
11 Dec 2.8 19:15:19 10° SW 19:18:16 19° S 19:18:16 19° S visible
12 Dec 2.8 19:05:01 10° SW 19:07:57 19° S 19:08:42 18° S visible
13 Dec 2.9 18:54:46 10° SW 18:57:36 18° S 18:59:11 15° SSE visible
14 Dec 3.1 18:44:34 10° SW 18:47:16 17° S 18:49:44 11° SSE visible
15 Dec 3.3 18:34:26 10° SW 18:36:55 16° S 18:39:24 10° SSE visible
16 Dec 3.4 18:24:23 10° SW 18:26:34 14° SSW 18:28:45 10° SSE visible
17 Dec 3.6 18:14:31 10° SW 18:16:12 12° SSW 18:17:53 10° S visible
18 Dec 3.8 18:05:07 10° SSW 18:05:50 10° SSW 18:06:33 10° S visible
